Location: Ward Pound Ridge Reservation
(41.2500°N, 73.6000°W)
Time: 16:51:29
(UTC-04:00)

Vanguard 3 - Visible Passes

Search period start: 15 July 2018 00:00
Search period end: 25 July 2018 00:00
Orbit: 508 x 3264 km, 33.3° (Epoch: 14 July)

Date Brightness Start Highest point End Pass type
(mag) Time Alt. Az. Time Alt. Az. Time Alt. Az.
15 Jul 8.3 20:58:21 10° WSW 21:07:18 42° S 21:12:38 10° ESE visible
15 Jul 8.1 23:13:03 10° WSW 23:17:40 29° SW 23:17:40 29° SW visible
16 Jul 7.9 21:57:24 10° WSW 22:05:14 42° S 22:07:58 25° SE visible
17 Jul 9.4 00:12:19 10° WSW 00:12:32 11° WSW 00:12:32 11° WSW visible
17 Jul 8.0 22:56:36 10° W 23:02:49 32° SSW 23:02:49 32° SSW visible
18 Jul 8.2 21:40:37 10° WSW 21:49:24 44° S 21:53:04 20° SE visible
18 Jul 9.3 23:56:13 10° WSW 23:57:39 14° WSW 23:57:39 14° WSW visible
19 Jul 8.1 22:40:04 10° W 22:47:02 32° SSW 22:47:53 31° S visible
20 Jul 8.4 21:23:42 10° W 21:33:30 46° SSW 21:38:07 17° SE visible
20 Jul 9.2 23:40:02 10° WSW 23:42:41 16° SW 23:42:41 16° SW visible
21 Jul 8.3 22:23:25 10° W 22:31:06 32° SSW 22:32:54 27° S visible
22 Jul 8.7 21:06:42 10° W 21:17:30 46° SSW 21:23:07 13° SE visible
22 Jul 9.2 23:23:46 10° WSW 23:27:41 16° SW 23:27:41 16° SW visible
23 Jul 8.6 22:06:38 10° W 22:15:05 31° SSW 22:17:54 23° S visible
24 Jul 8.9 20:49:37 10° W 21:01:24 46° SSW 21:08:07 10° SE visible
24 Jul 9.3 23:07:25 10° WSW 23:12:04 16° SW 23:12:40 16° SW visible
